Terminal Aerodrome Forecast
Issued by NWS Lake Charles, LA

Home | Current Version | Previous Version | Text Only | Print | Product List | Glossary On
Versions: 1 2 3 4 5 6 7 8 9 10 11 12 13 14 15 16
241
FTUS44 KLCH 030015 RRA
TAFLCH
TAF
KLCH 030015Z 0300/0324 06009KT P6SM -RA OVC070
     FM030300 09017G25KT P6SM -RA BKN025 OVC050
     FM031400 09018G25KT 5SM -RA BR OVC015=

USA.gov is the U.S. government's official web portal to all federal, state and local government web resources and services.